When you browse on this site, cookies collect data to enhance your experience and personalize the content and advertising you see.
Visit our Privacy Policy to learn more. By continuing to use the site, you agree to this use of cookies and data.

Previsão horária em Yurshino

Hoje, 11 Julho, Sábado

Tempo Temperatura Precipitação Vento Pressão Humidade
00:00 +16°C° 0 mm 2 m/s 751 mmHg 98%
01:00 +16°C° 0 mm 2 m/s 751 mmHg 98%
02:00 +16°C° 0 mm 2 m/s 751 mmHg 99%
03:00 +17°C° 0.2 mm 3 m/s 750 mmHg 98%
04:00 +17°C° 0.2 mm 3 m/s 750 mmHg 97%
05:00 +18°C° 0.2 mm 4 m/s 749 mmHg 97%
06:00 +18°C° 0.3 mm 4 m/s 749 mmHg 96%
07:00 +19°C° 0.3 mm 5 m/s 749 mmHg 95%
08:00 +19°C° 0 mm 5 m/s 750 mmHg 95%
09:00 +19°C° 0.1 mm 6 m/s 750 mmHg 84%
10:00 +20°C° 0.1 mm 6 m/s 751 mmHg 72%
11:00 +20°C° 0.1 mm 7 m/s 751 mmHg 61%
12:00 +20°C° 0 mm 7 m/s 752 mmHg 57%
13:00 +21°C° 0 mm 7 m/s 752 mmHg 54%
14:00 +21°C° 0 mm 7 m/s 753 mmHg 51%
15:00 +21°C° 0 mm 7 m/s 753 mmHg 52%
16:00 +21°C° 0 mm 6 m/s 753 mmHg 53%
17:00 +20°C° 0 mm 6 m/s 754 mmHg 54%
18:00 +19°C° 0 mm 5 m/s 754 mmHg 60%
19:00 +18°C° 0 mm 4 m/s 755 mmHg 66%
20:00 +16°C° 0 mm 3 m/s 755 mmHg 71%
21:00 +14°C° 0 mm 3 m/s 756 mmHg 76%
22:00 +14°C° 0 mm 2 m/s 756 mmHg 81%
23:00 +12°C° 0 mm 2 m/s 757 mmHg 87%

Amanhã, 12 Julho, Domingo

Tempo Temperatura Precipitação Vento Pressão Humidade
00:00 +12°C° 0 mm 2 m/s 757 mmHg 89%
01:00 +10°C° 0 mm 2 m/s 757 mmHg 91%
02:00 +11°C° 0 mm 1 m/s 757 mmHg 94%
03:00 +11°C° 0 mm 1 m/s 757 mmHg 92%
04:00 +12°C° 0 mm 1 m/s 757 mmHg 91%
05:00 +12°C° 0 mm 1 m/s 757 mmHg 90%
06:00 +13°C° 0 mm 1 m/s 757 mmHg 85%
07:00 +14°C° 0 mm 1 m/s 757 mmHg 79%
08:00 +16°C° 0 mm 1 m/s 757 mmHg 74%
09:00 +18°C° 0 mm 1 m/s 757 mmHg 68%
10:00 +19°C° 0 mm 1 m/s 757 mmHg 63%
11:00 +20°C° 0 mm 1 m/s 757 mmHg 58%
12:00 +19°C° 0.2 mm 2 m/s 757 mmHg 59%
13:00 +19°C° 0.2 mm 2 m/s 757 mmHg 61%
14:00 +19°C° 0.2 mm 2 m/s 757 mmHg 62%
15:00 +19°C° 0.2 mm 2 m/s 757 mmHg 64%
16:00 +19°C° 0.2 mm 2 m/s 757 mmHg 66%
17:00 +19°C° 0.2 mm 2 m/s 756 mmHg 68%
18:00 +18°C° 0.3 mm 2 m/s 756 mmHg 75%
19:00 +18°C° 0.3 mm 1 m/s 756 mmHg 82%
20:00 +15°C° 0.3 mm 1 m/s 756 mmHg 89%
21:00 +14°C° 0.1 mm 1 m/s 756 mmHg 91%
22:00 +13°C° 0.1 mm 1 m/s 756 mmHg 93%
23:00 +12°C° 0.1 mm 1 m/s 756 mmHg 95%

Depois de amanhã, 13 Julho, Segunda-feira

Tempo Temperatura Precipitação Vento Pressão Humidade
00:00 +12°C° 0 mm 1 m/s 756 mmHg 95%
01:00 +11°C° 0 mm 1 m/s 756 mmHg 95%
02:00 +11°C° 0 mm 1 m/s 756 mmHg 95%
03:00 +11°C° 0 mm 1 m/s 756 mmHg 95%
04:00 +11°C° 0 mm 1 m/s 756 mmHg 95%
05:00 +10°C° 0 mm 2 m/s 756 mmHg 95%
06:00 +12°C° 0 mm 2 m/s 756 mmHg 89%
07:00 +14°C° 0 mm 2 m/s 756 mmHg 83%
08:00 +16°C° 0 mm 2 m/s 756 mmHg 77%
09:00 +17°C° 0 mm 2 m/s 755 mmHg 69%
10:00 +19°C° 0 mm 2 m/s 755 mmHg 61%
11:00 +20°C° 0 mm 2 m/s 755 mmHg 52%
12:00 +21°C° 0 mm 2 m/s 755 mmHg 49%
13:00 +21°C° 0 mm 2 m/s 754 mmHg 46%
14:00 +23°C° 0 mm 2 m/s 754 mmHg 43%
15:00 +23°C° 0 mm 2 m/s 754 mmHg 44%
16:00 +21°C° 0 mm 3 m/s 754 mmHg 46%
17:00 +21°C° 0 mm 3 m/s 753 mmHg 48%
18:00 +20°C° 0 mm 2 m/s 753 mmHg 56%
19:00 +18°C° 0 mm 2 m/s 754 mmHg 65%
20:00 +18°C° 0 mm 1 m/s 754 mmHg 74%
21:00 +15°C° 0 mm 1 m/s 754 mmHg 77%
22:00 +14°C° 0 mm 1 m/s 754 mmHg 81%
23:00 +13°C° 0 mm 1 m/s 754 mmHg 84%

14 Julho, Terça-feira

Tempo Temperatura Precipitação Vento Pressão Humidade
00:00 +12°C° 0 mm 1 m/s 754 mmHg 86%
01:00 +12°C° 0 mm 1 m/s 754 mmHg 88%
02:00 +11°C° 0 mm 1 m/s 754 mmHg 90%
03:00 +11°C° 0 mm 1 m/s 755 mmHg 91%
04:00 +11°C° 0 mm 1 m/s 755 mmHg 91%
05:00 +11°C° 0 mm 1 m/s 755 mmHg 91%
06:00 +13°C° 0 mm 2 m/s 755 mmHg 83%
07:00 +15°C° 0 mm 2 m/s 755 mmHg 75%
08:00 +17°C° 0 mm 2 m/s 755 mmHg 68%
09:00 +18°C° 0 mm 2 m/s 755 mmHg 61%
10:00 +19°C° 0 mm 2 m/s 755 mmHg 54%
11:00 +20°C° 0 mm 2 m/s 755 mmHg 47%
12:00 +21°C° 0 mm 2 m/s 755 mmHg 46%
13:00 +21°C° 0 mm 2 m/s 755 mmHg 44%
14:00 +22°C° 0 mm 3 m/s 755 mmHg 42%
15:00 +23°C° 0 mm 2 m/s 755 mmHg 44%
16:00 +23°C° 0 mm 2 m/s 755 mmHg 45%
17:00 +23°C° 0 mm 2 m/s 755 mmHg 47%
18:00 +20°C° 0 mm 2 m/s 755 mmHg 55%
19:00 +19°C° 0 mm 1 m/s 755 mmHg 63%
20:00 +16°C° 0 mm 1 m/s 755 mmHg 70%
21:00 +15°C° 0 mm 1 m/s 755 mmHg 72%
22:00 +14°C° 0 mm 1 m/s 755 mmHg 74%
23:00 +11°C° 0 mm 0 m/s 756 mmHg 76%

15 Julho, Quarta-feira

Tempo Temperatura Precipitação Vento Pressão Humidade
00:00 +11°C° 0 mm 0 m/s 756 mmHg 78%
01:00 +10°C° 0 mm 0 m/s 756 mmHg 80%
02:00 +10°C° 0 mm 0 m/s 756 mmHg 82%
03:00 +10°C° 0 mm 0 m/s 756 mmHg 82%
04:00 +11°C° 0 mm 0 m/s 756 mmHg 81%
05:00 +11°C° 0 mm 0 m/s 756 mmHg 80%
06:00 +13°C° 0 mm 0 m/s 756 mmHg 74%
07:00 +16°C° 0 mm 0 m/s 756 mmHg 67%
08:00 +18°C° 0 mm 0 m/s 756 mmHg 60%
09:00 +19°C° 0 mm 0 m/s 756 mmHg 55%
10:00 +23°C° 0 mm 1 m/s 755 mmHg 50%
11:00 +24°C° 0 mm 1 m/s 755 mmHg 45%
12:00 +24°C° 0 mm 1 m/s 755 mmHg 44%
13:00 +25°C° 0 mm 1 m/s 755 mmHg 42%
14:00 +25°C° 0 mm 1 m/s 754 mmHg 40%
15:00 +25°C° 0 mm 1 m/s 754 mmHg 41%
16:00 +24°C° 0 mm 1 m/s 754 mmHg 43%
17:00 +24°C° 0 mm 1 m/s 754 mmHg 44%
18:00 +22°C° 0 mm 1 m/s 754 mmHg 53%
19:00 +21°C° 0 mm 1 m/s 754 mmHg 61%
20:00 +19°C° 0 mm 1 m/s 754 mmHg 69%
21:00 +18°C° 0 mm 1 m/s 754 mmHg 69%
22:00 +15°C° 0 mm 1 m/s 754 mmHg 70%
23:00 +14°C° 0 mm 1 m/s 753 mmHg 71%

16 Julho, Quinta-feira

Tempo Temperatura Precipitação Vento Pressão Humidade
00:00 +14°C° 0 mm 1 m/s 753 mmHg 73%
01:00 +12°C° 0 mm 0 m/s 753 mmHg 76%
02:00 +11°C° 0 mm 0 m/s 753 mmHg 79%
03:00 +12°C° 0 mm 0 m/s 753 mmHg 80%
04:00 +12°C° 0 mm 0 m/s 752 mmHg 81%
05:00 +12°C° 0 mm 0 m/s 752 mmHg 81%
06:00 +14°C° 0 mm 0 m/s 752 mmHg 75%
07:00 +19°C° 0 mm 1 m/s 751 mmHg 68%
08:00 +21°C° 0 mm 1 m/s 751 mmHg 62%
09:00 +23°C° 0 mm 1 m/s 751 mmHg 57%
10:00 +24°C° 0 mm 1 m/s 750 mmHg 51%
11:00 +26°C° 0 mm 1 m/s 750 mmHg 45%
12:00 +26°C° 0 mm 1 m/s 749 mmHg 44%
13:00 +27°C° 0 mm 1 m/s 749 mmHg 42%
14:00 +25°C° 0 mm 0 m/s 748 mmHg 40%
15:00 +26°C° 0 mm 1 m/s 748 mmHg 43%
16:00 +26°C° 0 mm 1 m/s 748 mmHg 46%
17:00 +25°C° 0 mm 1 m/s 747 mmHg 49%
18:00 +24°C° 0 mm 1 m/s 747 mmHg 55%
19:00 +22°C° 0 mm 1 m/s 747 mmHg 62%
20:00 +20°C° 0 mm 1 m/s 747 mmHg 68%
21:00 +19°C° 0 mm 1 m/s 747 mmHg 72%
22:00 +18°C° 0 mm 1 m/s 747 mmHg 76%
23:00 +16°C° 0 mm 1 m/s 747 mmHg 80%
Mostrar mais